Theta_e
322 326 327 327 326 324 320 320 322 324 325 323 324 327 325 324 325 326 324 320 317 318 320 319 317 318 317 317 318 313 310 311 310 311 311 311 309 308 308 307 306 306 304 302 302 304 303 304 305 307 311 314 314 312 313 314 313 313 315 315 313 313 314 315 316 316 315 315 315 312 312 311 309 310 311 311 311 312 311 310 311 312 312 312 311 311
320 324 327 329 325 321 321 320 319 319 321 320 321 322 323 325 325 324 322 319 317 318 323 322 318 319 319 318 319 315 311 311 311 311 311 311 309 309 308 307 307 307 304 302 302 303 303 303 304 306 309 312 311 310 311 312 311 310 312 312 310 309 311 314 315 314 314 316 315 313 312 311 308 308 310 310 310 310 310 309 310 310 310 310 310 309
322 324 325 324 321 320 322 321 319 320 320 320 323 322 324 329 328 325 323 319 317 318 325 327 321 321 320 319 319 317 315 312 311 311 311 311 310 309 309 308 308 308 304 302 302 302 303 303 303 305 307 309 310 309 310 311 310 309 309 311 311 309 310 312 313 314 314 314 314 314 312 311 308 305 307 308 307 307 308 307 308 308 308 308 307 306
326 329 326 320 319 321 322 321 320 322 323 324 324 322 326 330 326 326 326 320 317 318 322 324 321 319 318 318 319 318 316 314 312 311 311 312 312 310 309 308 308 307 304 303 303 301 302 303 303 304 305 307 309 309 309 310 309 309 310 311 311 310 309 310 311 313 315 312 312 312 309 309 308 303 303 304 303 304 305 304 304 305 304 304 302 301
326 328 325 321 320 321 321 322 322 322 326 330 327 323 326 328 324 325 325 321 323 325 322 320 322 325 323 320 320 319 317 318 316 314 312 314 314 312 310 309 307 306 304 303 303 301 301 302 302 303 305 306 307 308 308 309 309 309 309 310 309 309 308 308 309 312 313 310 307 306 304 304 303 299 299 300 298 299 300 300 300 300 300 299 298 297
322 322 323 323 321 321 321 322 327 327 325 329 331 327 324 324 324 325 325 324 329 333 327 322 327 336 334 326 324 323 321 322 320 317 315 315 316 314 311 309 307 305 304 302 302 302 301 302 302 302 303 305 306 307 308 308 308 309 309 308 308 308 307 307 308 310 310 309 306 304 301 299 297 295 296 297 296 296 297 297 297 297 296 296 295 294
322 320 321 323 323 325 323 322 328 328 324 326 330 329 326 324 323 324 324 324 332 334 325 322 329 334 329 324 324 324 323 324 322 320 317 315 316 313 310 309 307 305 304 302 302 301 301 301 302 302 302 304 305 305 306 307 307 308 308 307 307 307 306 306 306 307 308 307 306 305 301 298 296 294 294 294 294 294 294 294 294 294 293 293 292 292
322 321 322 323 325 327 325 325 326 325 327 331 329 328 329 327 326 327 325 326 332 333 326 325 328 328 326 324 324 323 324 324 322 321 318 314 314 312 310 309 307 305 303 302 302 301 301 301 301 301 302 303 304 304 304 305 306 307 307 307 307 306 305 305 305 305 307 306 304 302 299 297 296 295 292 292 292 292 292 292 292 291 291 291 290 290
322 322 325 324 324 327 326 328 329 323 325 330 328 328 330 330 331 330 328 328 329 328 328 327 325 326 329 328 326 324 324 324 322 321 319 315 313 311 311 309 307 305 303 302 302 302 301 300 301 302 301 302 303 303 303 304 305 306 306 306 306 306 305 304 304 304 304 304 302 300 297 295 294 293 291 291 291 290 291 290 290 290 289 289 289 289
325 322 323 324 325 327 327 329 330 326 323 325 327 330 333 332 331 329 327 328 329 327 329 329 326 327 329 329 328 326 326 326 322 321 319 316 313 311 310 309 306 304 303 302 301 300 300 300 301 301 301 302 302 302 302 303 303 304 305 305 305 304 304 303 302 301 300 300 299 298 297 294 291 290 289 289 289 289 289 289 288 288 288 288 288 288
321 316 317 323 323 324 324 322 323 325 323 324 328 333 336 334 333 332 329 327 329 329 328 328 327 326 329 335 334 329 329 328 323 322 320 318 315 312 310 308 305 304 303 302 301 300 300 300 301 301 300 300 301 301 301 302 302 303 303 304 304 302 301 301 300 299 298 298 298 297 296 294 291 290 289 288 288 288 288 288 287 287 287 288 288 288
319 318 320 321 318 322 325 320 320 325 324 326 332 333 333 334 333 331 327 326 329 331 331 329 325 323 328 334 333 329 328 324 322 322 322 321 317 312 310 307 304 304 303 302 302 300 299 298 299 299 299 299 299 299 300 301 301 302 302 303 302 300 299 299 299 299 298 297 297 296 295 294 291 290 289 288 288 287 288 287 287 287 287 287 287 287
322 324 324 320 317 321 327 324 323 326 325 326 331 331 329 330 332 330 327 327 328 329 328 325 323 324 325 326 325 325 323 320 321 322 322 323 319 312 309 307 304 303 302 301 301 301 299 297 296 297 297 297 298 298 299 300 300 300 301 302 301 299 299 299 299 299 298 297 297 295 293 292 290 289 289 289 288 288 288 288 287 287 287 287 287 287
327 326 322 320 319 321 323 323 323 325 325 323 326 330 330 329 332 334 331 329 330 329 323 318 322 327 327 326 324 322 321 320 321 321 321 320 317 312 308 305 304 303 302 301 301 301 298 296 296 296 296 296 297 298 298 299 299 299 300 300 300 299 298 298 298 298 298 297 296 294 292 291 290 289 289 289 289 288 288 288 288 288 288 287 287 287
328 328 324 321 322 321 319 321 324 326 323 321 323 327 330 332 336 337 334 332 333 332 322 317 324 331 331 328 323 319 317 316 316 317 315 313 312 310 306 304 304 303 302 301 300 300 297 296 296 296 296 296 296 297 298 298 298 298 299 299 300 299 297 297 298 297 297 296 295 293 291 291 290 289 289 289 289 289 289 288 288 288 288 287 287 287
324 329 328 320 320 321 318 319 323 324 321 321 325 326 328 331 332 332 332 329 327 328 323 320 327 331 327 322 318 315 312 311 313 314 313 312 309 308 306 304 303 302 301 301 300 299 297 295 296 295 295 296 296 296 297 297 297 297 298 298 299 298 297 297 297 296 296 295 293 292 291 290 289 289 289 289 289 289 289 288 288 288 287 287 287 287
325 330 325 317 318 318 318 321 320 322 325 322 323 325 325 328 328 329 330 325 323 327 327 324 327 328 323 320 319 317 313 312 314 313 312 312 308 307 306 304 302 302 301 300 300 299 296 295 295 295 295 295 295 295 296 296 297 297 297 297 297 297 296 296 295 295 295 294 292 291 290 290 289 289 289 289 289 288 288 288 288 287 287 287 287 286
329 330 322 317 320 316 315 321 319 320 324 323 324 324 322 326 329 330 332 329 328 330 328 325 327 328 325 324 321 316 314 316 316 313 311 309 307 307 306 304 302 302 300 300 299 298 296 295 295 295 295 295 295 295 296 296 296 296 297 297 296 296 295 295 295 294 293 292 291 290 290 289 289 289 289 289 289 288 288 287 287 287 286 286 286 286
327 328 323 317 319 317 314 320 321 319 320 323 326 324 324 330 331 328 329 331 332 332 330 329 327 325 324 326 323 318 318 319 317 313 310 309 308 306 305 304 302 301 301 300 299 298 296 295 295 295 295 295 295 295 295 296 296 296 296 296 296 295 295 294 294 293 292 291 291 290 290 289 289 288 288 289 288 288 287 287 287 286 286 286 286 285
327 328 326 317 316 318 316 319 324 321 318 322 322 319 324 330 329 328 328 329 332 332 331 331 329 326 325 325 325 323 321 319 316 313 311 309 307 305 304 304 302 301 301 299 299 299 297 295 296 295 295 295 294 295 295 296 295 295 295 295 295 294 294 294 293 293 292 291 291 290 290 289 288 288 288 288 288 288 287 287 286 286 286 285 285 285
325 325 327 319 315 318 320 321 324 322 318 320 321 320 323 323 324 327 326 326 330 332 332 330 328 328 326 322 322 323 321 317 315 315 313 309 307 305 304 304 302 301 301 300 299 299 297 296 296 295 295 294 294 294 295 295 295 295 294 294 294 294 294 293 293 292 292 291 291 291 290 289 288 288 288 288 288 288 287 287 286 286 285 285 285 285
324 326 329 324 317 320 325 322 318 318 319 319 320 321 322 321 323 327 326 324 325 328 332 331 327 327 324 320 320 320 318 315 314 315 314 310 307 306 304 304 303 302 301 300 300 299 297 295 295 295 294 294 294 294 294 295 294 294 294 294 294 294 293 293 292 292 292 291 291 291 290 289 289 289 289 288 288 287 287 286 286 285 285 285 285 286
326 329 330 326 320 319 321 320 317 318 319 319 320 321 321 321 323 327 327 326 324 325 327 328 327 326 319 319 323 322 319 317 314 313 314 312 308 306 305 305 303 302 301 300 300 298 296 296 295 294 293 293 293 293 293 294 294 294 294 294 294 293 293 292 292 292 291 291 291 290 290 289 289 289 288 288 288 287 287 286 285 285 285 285 286 286
326 328 328 327 324 318 317 320 321 319 318 319 321 322 321 320 321 325 328 327 327 327 326 326 328 324 316 318 323 322 321 320 316 312 312 312 309 306 305 305 303 303 302 301 300 298 296 295 294 293 292 292 292 292 293 293 293 293 293 293 293 293 292 292 292 291 291 291 290 290 289 289 289 288 288 288 287 287 286 285 285 285 285 285 286 287
324 327 329 330 328 324 322 323 322 319 318 321 323 320 318 319 321 322 324 324 324 326 326 326 327 324 318 317 319 319 317 318 319 316 313 312 310 307 305 305 304 303 302 301 300 299 297 295 294 292 292 292 291 292 292 293 293 293 293 293 292 292 292 291 291 291 290 290 290 289 289 288 288 287 287 287 287 286 286 285 285 285 285 286 287 287
324 326 327 328 329 328 327 326 324 321 318 319 321 320 318 319 321 321 322 323 323 324 325 325 325 324 322 318 318 319 316 315 319 318 314 314 312 308 306 305 304 303 302 301 300 299 298 296 294 293 292 291 291 291 291 292 292 292 292 292 292 292 291 291 291 290 290 289 289 288 288 287 287 287 287 287 286 286 285 285 285 285 285 286 287 287
328 326 323 325 328 326 325 327 325 322 320 319 321 320 319 319 320 321 322 323 324 325 324 323 323 324 323 320 321 324 322 319 319 318 316 314 312 309 307 306 304 303 301 300 300 299 298 296 294 293 292 292 291 291 291 291 292 292 292 291 291 291 291 291 290 290 289 289 288 288 287 287 287 286 286 286 286 286 285 285 285 285 286 287 287 287
330 326 323 325 326 324 324 325 323 321 321 321 321 320 319 318 319 321 321 322 325 327 325 323 323 324 322 320 324 327 325 322 321 319 317 314 311 309 307 305 305 303 302 301 300 299 298 297 295 293 292 292 291 291 291 291 291 292 291 291 291 291 291 290 290 289 289 289 288 287 287 287 286 286 286 286 286 285 285 285 285 285 286 287 287 287
329 326 324 324 324 323 323 323 322 321 320 321 320 320 319 318 319 320 320 320 322 324 324 323 325 325 322 320 323 323 321 321 319 317 314 311 310 308 307 306 305 304 302 302 300 299 298 297 296 294 292 292 291 290 290 290 291 291 291 291 290 290 290 290 289 289 288 288 288 287 287 286 286 286 286 286 286 285 285 284 284 285 286 287 287 287
324 325 324 324 323 323 323 322 322 321 321 321 320 320 318 318 318 318 319 319 320 321 321 321 323 322 320 322 325 322 318 317 315 313 312 310 310 309 308 307 305 304 303 302 300 299 298 298 296 294 293 292 291 290 290 290 290 290 290 290 290 290 290 289 289 289 288 287 287 287 287 286 286 286 286 286 285 285 285 284 284 285 286 287 287 287
319 323 324 323 323 324 322 322 323 323 324 324 322 321 319 318 317 317 317 318 319 320 319 320 322 321 319 322 326 322 316 314 313 313 312 310 309 309 308 307 305 304 303 302 301 300 299 298 297 294 293 292 291 291 291 290 290 290 290 290 290 289 289 289 289 288 288 287 287 287 286 286 286 286 286 286 285 285 285 284 284 285 286 286 286 286
317 322 323 322 324 324 322 322 323 323 323 323 323 322 320 319 318 317 317 318 318 319 320 319 320 319 318 321 322 320 318 316 315 314 312 309 308 308 308 307 305 304 303 302 302 301 300 299 298 295 294 293 292 291 291 290 290 290 290 290 289 289 289 288 288 288 287 287 286 286 286 286 286 285 285 285 285 285 284 284 284 285 285 285 286 286
319 320 321 322 324 323 323 324 323 321 322 323 323 322 320 320 320 318 317 317 317 318 319 320 320 318 319 322 322 320 320 320 317 314 312 310 308 306 306 307 305 304 303 303 302 302 301 299 297 296 295 294 293 292 291 291 290 290 290 289 289 289 288 288 288 287 287 286 286 285 286 286 286 285 285 285 285 284 284 284 284 284 285 285 286 286
318 319 320 321 323 323 323 323 322 323 324 324 324 323 321 320 321 321 320 318 316 316 316 318 319 318 319 321 321 320 320 319 317 314 312 311 308 306 306 306 305 304 303 303 302 302 300 299 297 296 296 294 294 293 292 291 291 290 290 289 289 289 288 288 287 287 286 286 286 285 285 285 285 285 285 285 284 284 284 284 284 284 284 285 285 285
317 317 318 319 321 322 321 320 323 325 324 324 326 326 322 320 320 321 321 319 318 317 316 316 317 317 317 318 319 319 319 317 315 314 312 310 308 307 306 305 304 303 303 302 302 301 299 298 297 296 296 295 294 293 293 292 291 290 290 290 289 289 288 288 287 286 286 286 286 286 286 285 285 285 285 284 284 284 284 284 283 284 284 284 285 285
317 316 317 318 319 320 320 321 325 324 321 323 324 319 315 319 322 321 321 321 318 318 318 316 316 315 316 316 317 319 319 314 312 313 310 308 307 306 306 305 303 302 302 301 301 300 298 297 297 297 296 296 295 294 293 293 292 291 290 290 289 289 288 287 287 286 286 286 286 286 286 285 285 285 285 284 284 284 284 283 283 284 284 284 285 285
318 317 316 317 319 319 321 322 322 322 322 323 323 317 314 320 323 321 321 321 317 317 318 316 317 316 316 317 317 316 313 310 311 312 309 307 307 305 304 304 302 301 301 299 299 299 298 297 298 297 297 297 296 296 295 294 292 291 290 289 289 288 288 287 287 287 286 286 286 286 286 285 285 285 284 284 284 284 284 284 284 284 284 284 284 284
318 318 317 318 319 318 320 322 322 323 323 321 322 318 313 317 321 319 320 320 318 319 319 317 317 317 316 317 315 312 311 311 314 314 309 307 306 305 305 305 301 298 298 297 297 297 297 297 297 297 298 297 297 296 295 294 292 291 290 289 289 288 288 287 287 287 286 286 286 286 286 285 285 285 284 284 284 284 284 284 284 284 284 284 284 284
316 317 316 317 319 318 320 322 323 324 323 321 320 313 308 313 319 318 319 319 317 316 316 316 317 317 317 316 311 310 312 313 315 315 310 306 305 305 306 305 300 296 296 297 296 296 296 297 297 297 297 297 296 296 295 294 292 291 290 289 289 288 287 287 287 287 287 287 287 286 286 286 285 285 285 285 284 284 284 284 284 284 284 284 284 284
315 316 316 317 319 318 319 321 321 322 321 320 317 309 305 310 315 319 322 319 313 310 309 312 315 315 315 313 308 310 314 314 316 317 309 303 303 303 303 303 300 296 295 296 296 297 297 297 297 296 296 296 296 295 294 294 292 291 290 290 289 288 288 289 289 289 289 288 287 287 286 286 285 285 285 285 285 285 285 285 285 284 284 284 284 284
314 315 316 317 318 318 319 321 320 321 321 318 315 310 307 310 316 321 321 314 309 309 307 310 315 314 312 310 308 310 311 306 306 307 302 300 303 301 297 297 296 295 295 295 296 296 296 296 296 295 295 295 296 295 295 294 292 291 291 290 289 289 290 291 290 290 289 288 287 287 286 286 286 286 285 285 285 285 285 285 285 285 284 284 284 283
315 315 315 316 318 318 319 319 319 321 318 313 309 306 306 314 319 317 310 304 305 308 307 308 313 311 307 307 307 307 304 298 297 299 299 299 301 299 295 294 293 293 293 294 295 296 295 295 294 294 294 295 295 295 295 294 293 291 290 290 290 292 292 292 291 290 289 288 288 287 287 286 286 286 286 286 285 285 285 285 285 285 284 284 283 283
315 316 315 315 317 317 318 318 320 321 313 306 306 306 309 315 315 308 304 301 302 307 308 309 309 306 304 306 304 301 298 296 296 298 297 297 297 295 293 293 293 293 292 292 293 294 294 294 293 293 294 294 294 294 294 294 293 291 291 291 292 293 293 291 291 290 289 289 288 288 287 287 287 286 286 286 286 285 285 285 285 284 284 284 283 283
317 316 316 316 316 317 319 318 316 314 307 303 306 311 311 310 308 307 308 306 303 305 308 310 307 303 304 305 301 296 296 297 296 297 298 297 295 294 294 292 291 291 291 291 292 292 293 293 292 292 293 293 293 293 293 294 293 292 292 293 293 293 292 291 291 290 289 289 289 288 288 288 287 287 286 286 286 285 285 285 285 284 284 283 283 282
315 313 314 316 314 312 315 314 308 304 302 301 303 306 306 304 303 305 309 309 306 304 305 306 305 303 303 302 298 297 297 297 296 296 297 296 295 294 293 291 290 290 290 290 291 291 293 293 292 291 291 291 292 293 293 293 293 292 293 293 293 292 292 292 291 291 290 290 290 289 289 288 288 287 287 287 286 286 285 285 285 284 284 283 283 282
309 307 311 314 311 307 306 305 302 302 304 303 302 303 302 301 301 303 306 306 304 302 300 301 303 302 301 299 298 297 297 296 295 295 294 294 293 292 291 289 288 289 289 290 290 291 291 291 291 291 290 290 291 292 292 293 293 292 292 292 292 292 292 291 291 291 290 290 290 290 289 289 288 288 287 287 286 286 286 285 285 284 284 283 282 281
305 305 310 312 312 310 309 306 303 302 303 304 303 303 303 301 300 300 302 301 300 299 298 299 300 301 299 298 298 297 294 294 295 294 292 292 292 292 291 290 288 288 289 290 290 291 291 291 290 289 290 290 291 291 292 292 292 291 291 291 291 291 290 290 290 290 290 290 289 289 289 288 288 288 287 287 286 286 286 285 285 284 283 283 282 281
306 306 309 310 308 307 305 301 297 297 299 300 300 302 305 305 302 299 297 296 297 297 297 297 298 299 298 297 297 296 294 293 294 294 292 291 292 292 291 289 287 287 289 290 290 291 291 291 290 290 291 291 291 291 291 291 291 291 290 290 290 290 290 290 289 289 289 289 288 288 288 287 287 287 286 286 285 285 285 284 284 283 283 283 282 281
306 306 308 307 304 302 300 297 296 299 302 301 300 300 301 302 302 299 295 294 295 296 296 296 295 296 298 298 296 296 296 293 293 293 292 291 292 291 289 287 287 288 289 290 290 291 291 291 291 291 291 290 290 290 290 290 290 289 289 289 289 289 289 289 289 288 288 288 288 287 287 287 286 286 285 285 284 284 283 283 282 282 281 281 280 280
304 306 306 305 305 305 303 300 300 304 309 307 304 303 300 298 299 298 295 294 295 295 296 296 295 294 295 294 294 298 299 294 291 293 293 292 291 290 287 286 287 287 288 289 290 290 290 290 290 290 289 288 288 288 288 288 288 288 288 288 288 288 288 288 288 288 287 287 287 287 286 286 285 285 284 284 283 283 282 282 281 280 280 280 279 278
305 306 305 305 308 308 305 301 300 304 310 309 305 303 300 297 297 298 296 295 295 295 296 298 297 295 294 291 290 294 298 295 291 292 294 292 289 288 287 287 288 288 287 288 289 289 288 289 288 288 287 287 287 287 287 287 287 287 287 287 286 286 286 286 287 287 286 286 286 285 284 284 283 283 283 282 281 281 280 280 280 279 278 278 277 277
Wind_Speed
3 3 2 4 6 7 8 9 9 7 5 4 2 2 4 4 5 4 3 5 4 4 6 8 8 9 10 9 9 8 8 9 10 9 9 9 9 9 10 9 9 8 7 13 19 18 17 16 16 17 19 18 19 20 20 21 22 23 23 22 22 22 23 24 24 25 26 26 26 27 26 25 24 22 21 22 21 20 20 20 19 19 19 19 19 18
3 4 6 8 9 8 9 9 8 7 6 5 4 3 4 3 5 5 2 3 2 3 6 6 6 9 10 9 9 5 7 10 13 13 13 12 11 9 10 10 8 5 6 11 15 17 19 17 17 18 20 21 21 21 21 23 23 23 22 22 21 20 21 23 25 27 27 26 26 25 24 24 23 21 19 20 20 19 19 19 18 18 18 18 18 17
2 4 9 11 7 6 7 6 6 6 6 6 3 2 3 3 4 5 3 2 1 3 4 5 5 9 10 9 9 7 9 11 14 16 15 13 12 10 10 10 8 7 7 9 11 15 19 19 18 19 21 22 22 22 23 24 24 24 23 22 21 20 21 23 24 25 25 23 21 20 22 23 22 21 20 20 21 20 20 20 19 19 18 18 19 19
3 5 10 11 6 6 7 6 5 3 2 4 3 3 3 4 2 3 4 4 2 2 3 5 6 7 9 8 10 12 10 9 11 14 12 10 12 14 13 12 12 13 12 10 9 13 18 20 19 20 22 22 22 23 24 25 25 25 24 23 23 20 20 21 22 22 22 21 20 21 23 23 22 23 22 22 22 21 22 22 21 21 21 21 22 23
7 7 6 7 7 8 6 5 6 5 2 3 4 5 4 3 5 6 4 3 3 4 3 4 6 6 7 8 10 9 6 7 9 9 9 9 10 10 10 11 12 14 14 13 11 12 16 20 20 21 22 23 24 24 25 26 26 26 26 25 24 22 20 20 20 21 22 23 25 26 26 25 25 25 24 25 25 24 25 25 25 24 24 25 26 26
9 7 3 4 6 7 7 6 6 7 4 4 4 7 7 7 8 7 2 3 4 5 3 2 3 6 4 5 9 6 3 6 6 6 11 11 9 9 10 11 11 10 11 11 12 13 16 19 20 21 22 23 24 24 25 25 25 26 26 25 24 23 22 21 21 21 23 25 27 28 29 29 30 27 26 27 28 28 28 28 28 28 27 27 27 27
5 7 6 5 6 7 8 6 5 7 5 3 4 6 7 8 8 7 3 1 1 4 3 3 1 7 7 6 9 7 8 11 8 7 11 10 9 10 11 11 11 10 9 8 10 13 16 19 21 21 23 25 25 24 24 24 24 25 25 24 24 23 22 22 22 23 25 26 27 28 29 31 31 30 28 29 30 30 31 30 30 29 28 27 27 27
4 7 8 8 6 7 7 5 6 7 7 4 6 5 5 5 6 5 3 2 3 3 4 3 2 5 9 7 7 8 10 13 12 10 11 10 10 10 9 10 11 11 11 10 10 12 15 20 22 23 24 25 26 25 24 24 24 25 24 23 22 21 22 22 23 25 26 27 29 29 30 31 31 32 32 31 31 31 31 31 30 30 29 27 27 27
3 7 9 10 7 6 6 5 6 9 6 5 5 5 6 6 5 3 4 1 1 2 4 3 2 3 9 6 3 4 7 10 12 13 13 12 11 9 8 8 9 10 10 11 11 12 16 20 23 24 24 25 26 25 24 25 25 24 23 23 22 22 22 23 25 27 27 28 29 31 33 33 32 33 34 33 33 32 32 32 31 30 30 29 28 28
2 5 7 8 7 6 4 1 3 7 6 4 3 5 5 4 4 5 4 2 3 2 5 5 3 4 7 4 2 2 4 8 10 11 12 11 10 9 8 8 8 8 8 9 10 13 18 21 22 23 23 24 26 25 24 25 25 25 24 24 25 25 25 26 27 27 27 27 30 33 35 36 35 35 35 34 33 33 32 33 32 31 31 30 29 28
1 1 2 3 4 5 5 2 2 3 6 6 6 6 6 5 5 4 2 4 2 4 6 9 10 7 6 4 4 4 5 7 7 7 9 7 8 10 9 8 8 8 8 8 8 12 17 20 21 22 23 25 25 25 25 25 25 26 26 27 28 27 27 28 27 25 24 26 29 33 36 37 38 37 37 36 35 34 34 34 33 32 31 30 29 28
4 1 1 1 2 4 6 4 3 3 3 6 5 5 3 4 4 4 4 4 1 5 6 10 10 9 7 6 3 5 5 5 6 6 8 8 8 10 9 9 9 9 9 9 8 10 14 17 20 22 23 24 25 25 25 26 26 26 27 29 29 29 28 28 26 24 24 25 29 33 36 38 39 39 39 38 37 36 35 35 34 33 31 30 28 27
3 3 3 1 1 4 6 4 3 6 4 5 5 6 3 2 3 3 2 0 3 6 5 5 5 6 9 8 8 11 11 10 7 6 7 9 8 9 9 9 9 8 9 10 9 9 11 14 18 22 24 25 26 27 27 27 27 27 28 30 30 29 28 27 26 25 26 26 29 34 37 37 38 38 38 38 38 36 35 35 34 33 31 30 28 26
3 5 1 1 3 3 8 7 3 2 1 5 6 6 5 3 1 3 3 2 4 5 5 1 4 3 5 6 11 15 15 13 8 5 7 8 9 10 9 9 8 8 9 9 10 9 9 14 19 22 24 25 27 28 28 28 28 29 29 30 31 30 28 27 26 26 27 27 31 35 36 37 38 37 37 37 36 35 34 33 33 32 31 30 28 26
5 6 4 8 3 5 11 9 6 6 5 5 5 6 5 5 4 4 4 3 4 4 4 1 3 4 3 3 7 8 8 7 4 3 2 3 5 7 7 8 8 9 9 8 9 9 11 17 21 23 24 26 27 29 30 30 30 30 31 31 32 31 29 28 27 27 28 30 33 36 36 36 37 36 36 35 34 33 32 31 31 30 29 28 27 26
6 7 6 7 3 9 12 6 6 8 3 3 3 5 3 5 5 3 3 5 2 2 3 2 3 5 5 5 6 4 4 4 5 2 3 4 4 6 7 7 8 8 8 8 8 9 11 18 22 23 25 26 27 29 30 31 32 32 32 32 32 32 30 29 29 29 30 32 35 36 36 36 36 35 35 34 33 32 31 30 30 29 28 27 27 25
4 5 3 2 2 5 8 4 4 5 4 2 2 4 4 4 5 2 3 1 2 2 4 3 5 5 3 7 8 6 3 3 4 3 4 5 5 7 7 8 8 8 9 9 9 9 12 17 20 22 25 26 28 30 31 32 32 33 33 33 32 32 31 30 30 31 32 35 37 36 36 36 36 35 35 34 33 32 31 30 29 29 28 27 26 25
5 2 3 2 1 3 2 3 2 1 4 6 4 5 2 2 2 2 1 3 2 4 4 3 7 5 2 6 4 3 4 7 8 6 5 4 6 8 8 8 9 9 9 9 9 10 12 17 20 22 25 27 29 30 31 32 32 32 33 33 33 33 33 32 31 33 34 36 37 36 36 36 35 35 34 33 33 32 31 30 29 29 28 27 26 25
4 2 3 1 2 3 2 4 3 3 2 5 4 5 4 2 1 2 2 1 1 4 5 3 7 6 6 5 1 3 8 11 11 7 6 8 10 10 9 9 9 8 8 9 9 9 12 17 22 24 25 26 28 29 30 31 31 32 32 32 33 32 32 32 32 34 35 36 37 36 36 36 35 35 34 33 33 32 31 31 30 29 28 27 26 25
2 3 3 1 1 1 2 3 4 2 1 2 1 3 2 2 4 4 3 3 3 3 4 3 3 4 6 6 6 9 12 13 12 9 9 12 13 11 9 9 9 9 10 10 11 10 11 17 23 24 25 26 28 29 30 31 31 31 31 31 31 31 31 32 32 34 35 36 36 36 35 35 35 35 34 33 32 32 31 31 30 29 28 28 26 25
2 3 3 2 2 1 2 4 8 11 7 4 3 4 3 1 2 1 2 3 4 3 3 4 6 4 4 5 9 11 12 13 12 11 12 13 12 11 10 10 9 10 10 10 11 10 11 17 21 23 24 26 27 28 30 31 31 30 30 31 31 31 31 32 33 35 36 36 36 36 36 36 36 35 34 33 32 31 31 31 30 29 28 27 26 25
3 3 3 2 1 3 6 6 7 9 8 7 7 8 8 5 4 1 4 2 3 3 4 3 8 8 4 3 6 9 10 11 12 13 12 12 12 12 11 11 11 10 11 11 10 9 10 16 20 22 24 26 27 29 30 31 31 30 30 31 31 32 33 34 35 35 36 36 36 36 36 37 36 35 34 33 32 31 31 31 30 29 28 27 26 25
4 3 3 3 4 6 6 5 2 2 3 4 3 5 6 6 6 5 6 4 2 3 3 1 6 8 2 2 4 6 8 8 9 11 10 10 11 11 10 10 10 10 10 10 9 9 11 17 20 22 24 26 28 30 31 31 32 32 31 32 32 33 34 35 35 36 36 36 36 36 36 36 36 35 34 34 33 32 32 31 30 29 28 27 27 26
2 3 3 1 2 2 3 5 5 4 4 3 1 4 6 7 6 6 5 3 2 5 3 2 7 8 1 0 2 3 5 4 5 7 9 8 7 9 11 10 10 10 9 8 8 8 12 17 19 21 23 26 28 30 31 32 32 32 32 33 33 34 35 35 36 36 36 36 35 35 35 36 35 35 35 34 34 33 32 32 31 30 28 28 27 27
4 4 3 2 2 3 3 3 3 3 0 3 4 5 8 8 5 2 1 2 4 8 7 4 10 8 1 3 3 4 4 3 4 5 7 7 6 8 10 9 9 9 8 9 9 9 12 15 17 20 23 26 28 30 32 32 33 34 34 34 35 35 35 35 36 36 36 36 35 35 35 35 36 36 36 35 34 33 33 32 31 30 29 29 28 27
6 5 6 6 6 8 7 5 3 3 3 3 4 6 10 11 10 6 1 4 9 7 8 8 14 8 2 3 4 4 4 3 6 5 5 7 8 8 8 8 9 9 11 13 13 12 13 13 16 21 24 25 28 30 32 33 33 34 34 34 35 35 36 36 35 36 36 36 36 36 35 36 37 37 36 35 34 34 33 33 32 31 30 30 29 27
4 4 9 11 11 12 12 7 6 8 6 6 9 11 13 14 14 10 6 9 8 2 5 14 14 12 11 5 4 7 4 5 7 5 5 7 7 7 8 9 9 9 11 12 13 12 13 13 15 20 23 25 27 29 31 33 33 34 34 34 35 35 36 36 36 36 36 36 36 37 37 37 38 38 37 36 35 34 34 33 32 32 31 30 29 27
4 3 10 14 15 16 17 12 10 13 12 14 15 14 14 15 15 14 14 14 7 4 11 16 8 13 23 12 8 10 6 5 8 8 8 8 7 8 7 8 9 9 9 10 11 12 13 13 12 16 21 24 25 27 29 31 33 34 35 35 35 36 36 37 37 37 37 37 37 38 38 38 38 38 37 36 35 34 34 33 33 32 32 31 29 28
5 6 10 13 15 18 20 15 11 13 12 12 14 16 16 16 18 21 23 18 9 7 18 17 10 17 24 10 10 13 9 10 12 10 8 7 6 6 7 8 10 11 11 12 13 13 14 13 12 16 21 24 25 27 28 30 31 32 33 34 35 36 37 37 37 37 37 38 38 39 39 38 38 37 37 35 34 34 34 34 34 33 32 31 30 28
3 6 7 10 13 17 20 15 10 11 8 7 11 14 15 19 24 25 22 17 13 15 23 21 15 21 19 6 10 13 10 10 8 5 6 7 8 8 9 11 12 12 13 14 15 14 15 15 14 17 21 23 26 29 29 30 32 33 33 34 35 36 37 38 38 38 38 39 39 39 38 38 38 38 37 36 35 35 35 35 35 34 34 32 30 29
2 3 3 6 7 14 18 12 7 9 9 8 9 13 17 21 21 17 14 14 14 19 24 21 18 21 13 6 8 8 5 5 4 5 8 9 9 10 11 12 12 13 13 14 14 14 13 13 13 15 19 24 27 30 30 31 31 31 32 34 35 37 37 38 38 38 39 39 39 38 38 38 38 38 37 36 36 36 36 36 36 35 34 33 31 30
3 2 2 4 5 13 14 8 7 7 6 6 12 19 23 19 12 10 12 15 16 18 20 16 15 19 11 5 6 5 6 8 9 10 10 9 9 11 12 14 14 14 14 14 14 13 13 13 13 15 21 26 29 30 31 30 30 31 33 34 35 36 36 37 38 38 38 38 38 38 38 38 38 38 38 37 37 36 36 36 37 36 35 34 33 32
5 4 2 5 7 14 11 7 10 6 3 7 16 24 24 17 12 12 13 16 16 15 14 13 15 19 10 5 7 8 8 11 12 10 10 10 10 12 14 15 15 15 15 14 14 15 15 15 17 21 26 28 30 31 31 31 32 33 34 33 33 33 35 36 36 36 36 36 36 37 37 38 38 38 38 38 37 36 36 37 38 37 36 35 33 33
4 6 5 5 6 12 7 8 9 5 8 11 10 12 16 18 19 18 17 18 18 15 14 15 16 17 10 6 10 11 10 11 11 11 12 11 10 12 14 14 13 13 13 13 14 14 13 14 18 22 25 27 29 29 29 30 32 31 31 31 32 33 35 36 35 35 35 35 35 36 37 38 38 39 39 38 37 37 37 38 39 38 37 35 34 34
6 6 4 3 3 5 1 7 5 9 11 8 2 2 9 14 16 18 18 20 19 17 18 20 19 20 15 10 9 10 11 11 11 12 12 10 11 13 14 14 13 13 13 11 11 10 10 13 17 20 23 26 28 28 28 29 30 29 29 32 33 35 36 36 36 35 36 36 35 36 37 38 39 39 38 38 38 38 38 39 38 37 36 36 36 36
9 7 4 3 3 2 1 4 9 6 4 6 5 1 2 2 5 8 12 17 20 19 19 20 21 22 18 13 9 9 9 8 8 8 5 5 9 11 12 13 13 13 12 11 12 13 15 19 22 24 25 26 27 28 29 31 31 31 31 33 34 34 35 35 35 35 36 36 36 38 39 39 40 39 38 38 38 38 39 39 38 37 37 37 37 37
9 7 5 4 5 4 5 9 7 5 9 13 9 4 5 5 8 8 8 13 16 16 15 16 19 20 17 14 12 7 4 2 5 7 3 5 8 8 8 8 8 9 9 10 12 15 18 22 24 25 25 25 26 28 29 31 32 31 31 31 32 33 33 34 36 36 36 36 38 39 40 40 39 39 38 37 38 39 39 39 38 37 37 38 38 38
10 9 8 6 5 5 6 8 5 5 11 12 6 4 6 6 7 9 7 10 10 9 12 15 17 18 16 13 9 4 5 3 7 8 6 6 6 5 4 2 5 7 9 11 13 15 19 22 22 22 23 23 24 26 28 30 31 30 30 30 31 32 32 34 36 36 35 37 38 39 39 39 39 38 38 38 39 40 40 39 38 39 38 38 39 39
9 7 7 7 5 4 6 7 6 7 9 5 2 2 1 2 7 9 3 8 6 2 5 11 16 18 15 11 7 7 6 7 10 8 5 6 5 6 6 4 6 9 13 17 20 21 22 21 20 19 19 21 22 24 26 28 29 29 29 29 30 31 32 34 35 35 36 38 38 38 38 38 38 38 38 39 40 40 39 39 39 39 38 38 38 38
7 5 5 7 7 7 8 7 5 5 6 3 4 4 2 2 8 8 2 6 4 4 3 6 11 12 7 6 7 8 7 8 8 5 5 7 6 5 7 7 7 10 13 15 17 19 20 20 19 19 19 20 22 23 24 26 27 28 28 28 29 30 33 35 35 35 36 37 36 36 36 37 37 38 39 39 40 39 39 38 38 38 38 38 38 37
4 4 4 7 9 10 11 8 5 4 4 4 6 6 4 4 6 5 6 3 2 5 5 4 6 4 4 7 7 6 5 3 3 2 5 9 8 6 6 9 10 11 13 15 16 19 19 18 18 19 19 20 21 22 23 25 26 26 25 26 27 30 33 33 33 33 33 33 33 34 34 35 36 37 38 38 38 37 37 37 37 37 37 37 37 37
4 3 2 6 8 8 8 7 5 5 3 4 4 3 3 4 3 5 4 2 3 5 4 0 4 4 6 7 5 4 2 2 3 3 6 7 8 7 6 9 11 12 14 16 17 19 19 17 16 17 18 19 20 21 22 24 24 23 23 24 26 28 29 28 29 29 30 30 30 31 32 33 34 35 36 36 36 36 36 36 36 36 36 36 36 36
6 5 3 5 6 3 4 5 5 4 3 5 6 3 2 4 4 3 2 2 4 4 2 1 2 4 5 5 4 4 4 4 5 6 6 6 7 7 6 7 9 10 12 15 15 17 19 18 16 17 18 18 19 20 21 23 22 21 21 23 24 24 24 24 25 26 26 27 28 29 30 31 32 33 34 35 35 35 35 35 34 35 35 35 35 35
5 5 4 5 5 4 5 6 4 2 1 2 3 3 3 3 4 4 3 1 2 4 2 0 2 3 4 5 5 5 4 5 5 5 6 6 6 6 6 6 8 10 11 13 14 16 18 18 17 16 17 18 19 19 20 21 20 20 21 21 20 19 20 21 22 22 23 25 26 27 28 28 30 31 32 33 33 34 34 34 33 34 34 34 34 34
3 3 3 3 2 2 3 3 2 1 1 1 1 2 2 0 2 4 4 2 2 4 3 2 2 3 4 6 6 4 3 4 4 4 5 5 5 5 6 6 8 11 12 13 15 16 16 17 18 18 17 18 18 18 19 19 19 19 20 17 15 16 17 18 19 20 22 23 24 24 25 26 27 28 30 31 32 33 33 33 33 33 34 34 34 35
1 1 2 3 1 1 1 1 1 1 3 3 2 3 3 1 0 2 3 1 2 3 3 3 4 4 5 6 6 3 3 4 5 4 4 5 5 5 6 7 9 11 13 15 16 15 16 17 19 18 18 17 17 17 18 18 16 16 15 13 12 14 14 15 17 18 19 20 21 22 22 24 25 26 28 29 30 31 32 33 34 34 34 34 34 35
1 1 2 3 3 3 1 1 1 1 3 4 4 4 3 2 2 2 1 1 1 2 3 3 4 5 4 5 6 5 4 5 6 5 4 5 5 5 6 6 9 11 13 16 17 17 18 19 18 17 18 17 17 16 16 16 15 13 11 10 9 10 11 12 14 15 17 18 19 20 21 22 24 25 26 28 29 30 31 32 33 34 34 35 35 36
1 2 2 2 2 2 0 2 1 2 4 4 3 3 3 3 3 1 2 3 4 4 4 4 3 5 4 4 5 6 5 5 6 6 5 4 5 5 5 6 9 11 12 15 17 18 18 19 18 17 17 17 16 16 15 15 16 15 12 10 8 8 9 10 11 12 14 15 17 18 19 20 22 23 25 26 27 29 30 31 32 33 35 36 36 36
3 3 3 2 3 1 2 3 1 1 4 5 5 6 6 5 3 1 3 4 4 5 5 5 4 3 5 5 6 7 6 5 5 6 6 5 4 5 5 7 10 11 12 15 18 18 18 19 19 18 16 14 14 15 15 14 14 14 12 11 10 10 10 10 11 11 13 14 15 17 18 19 21 22 23 24 25 26 27 29 30 31 32 32 31 32
4 4 3 3 3 2 3 5 6 3 2 5 8 10 9 6 4 2 1 3 4 4 5 5 4 4 4 4 5 7 7 5 4 5 6 5 5 6 8 9 10 10 11 14 15 15 14 14 15 15 12 9 9 11 11 10 9 9 9 10 10 10 11 12 12 12 13 14 15 17 18 19 20 21 22 22 23 24 25 25 26 27 28 28 28 28
4 6 6 5 4 4 5 8 8 4 2 5 8 10 9 6 5 5 5 3 4 4 5 6 5 4 3 3 2 5 7 6 6 7 6 5 6 9 11 13 13 13 12 13 14 13 11 10 10 11 10 8 7 8 8 8 7 7 8 8 8 9 10 11 12 13 14 15 15 16 17 17 18 18 19 20 20 21 22 22 23 23 24 25 25 24
Wind_Direction
115 110 156 195 209 202 202 203 205 207 193 192 196 200 208 217 272 270 255 253 167 151 239 224 229 250 252 255 247 222 200 211 228 234 231 215 202 196 197 198 189 185 171 159 161 164 165 166 170 163 157 157 151 146 145 143 139 134 135 138 137 140 143 144 146 146 144 140 139 136 132 129 126 127 129 125 126 129 128 129 131 130 128 129 127 126
118 161 217 223 214 199 203 212 215 223 234 247 246 259 267 236 258 273 269 263 175 168 261 256 252 262 257 257 260 212 181 215 221 219 225 215 206 202 197 196 181 160 147 151 158 162 165 167 171 167 160 158 153 149 150 147 142 138 139 141 139 141 146 150 153 149 146 147 146 142 137 135 131 130 134 131 129 133 132 131 131 129 129 130 128 127
178 220 236 233 216 201 228 226 204 219 227 231 219 199 255 260 275 296 312 306 176 187 261 280 269 266 263 258 262 230 197 219 219 213 219 208 200 203 195 188 170 155 159 164 165 166 170 172 173 172 165 163 161 156 156 153 149 147 147 148 149 152 154 155 156 152 148 148 151 152 146 144 138 132 136 136 133 136 135 132 130 129 130 130 127 126
205 242 236 228 210 202 248 252 190 187 221 206 175 159 233 259 267 287 298 293 262 226 258 287 283 267 267 265 258 244 224 230 229 222 224 210 202 204 195 186 174 170 173 175 173 170 173 175 177 177 171 168 167 164 162 161 159 156 155 158 159 162 163 161 161 160 158 155 155 154 147 145 142 133 134 135 132 134 134 129 128 128 128 128 125 123
214 232 220 197 199 202 224 239 185 167 255 257 200 188 212 240 226 230 269 314 326 326 327 325 309 276 256 253 255 259 252 251 241 225 228 226 216 203 190 189 183 178 176 173 175 174 175 179 181 179 175 172 171 170 169 167 165 163 161 163 165 169 171 171 171 169 166 160 151 145 140 138 136 131 133 132 128 129 129 127 126 126 127 126 122 119
231 234 214 160 196 202 204 220 191 168 210 280 243 202 207 223 232 239 280 20 10 320 315 49 317 283 266 244 253 283 315 268 246 215 222 223 212 193 186 191 188 182 180 174 173 173 174 178 179 178 176 176 174 173 172 170 169 167 166 167 168 171 174 175 176 174 170 163 153 148 143 138 134 131 132 132 128 127 127 125 125 124 125 124 121 120
222 209 208 195 191 191 200 221 214 170 161 256 248 198 201 215 231 246 256 356 267 265 292 83 158 274 285 257 247 260 270 264 256 233 230 222 208 200 193 189 182 178 177 173 170 170 173 176 178 180 179 179 176 172 172 172 172 171 170 171 171 173 175 176 176 174 170 163 158 155 149 143 140 134 131 132 130 128 127 125 125 126 125 125 124 122
178 176 191 192 178 179 191 213 216 166 142 232 241 168 153 175 206 224 190 184 218 251 322 17 116 270 281 265 239 230 242 258 258 246 240 226 213 209 198 186 180 177 172 169 170 173 177 180 180 181 181 181 177 172 172 173 173 174 173 172 174 175 175 176 174 172 169 165 160 157 150 144 142 137 133 133 131 130 130 129 129 129 128 127 125 123
163 166 181 179 174 185 196 215 197 154 147 237 222 142 120 135 151 130 104 114 325 7 307 294 107 263 271 269 261 225 225 251 255 245 242 231 213 205 198 187 176 174 172 170 172 175 179 182 183 181 180 181 179 175 173 173 173 174 172 170 171 172 172 172 170 167 167 167 163 157 150 143 140 138 135 135 134 134 135 133 132 131 130 128 126 124
189 183 181 163 173 195 194 222 170 156 181 212 141 92 69 77 77 69 81 72 30 337 248 222 173 242 269 257 230 240 227 242 248 246 246 232 207 197 193 181 170 167 169 171 171 174 178 181 181 179 178 179 180 177 175 173 172 171 169 166 164 164 166 165 165 164 164 167 164 157 152 145 141 139 138 137 137 137 138 135 133 132 131 129 128 126
294 238 178 144 173 177 145 92 54 166 175 139 92 58 39 23 33 40 39 75 54 277 236 207 193 203 269 270 200 219 224 221 230 248 256 234 192 192 188 175 171 166 164 166 165 168 172 174 176 176 176 178 179 178 175 172 171 170 168 165 162 162 164 164 166 169 169 169 166 160 155 149 146 144 143 142 141 141 140 137 135 135 133 132 131 129
341 360 226 234 169 123 100 82 14 6 102 106 90 79 57 347 14 21 3 54 155 256 234 214 196 185 236 261 236 247 254 225 204 214 241 235 201 192 185 176 173 166 163 162 160 163 162 165 171 173 175 177 177 177 176 173 172 171 169 167 164 163 167 170 173 176 173 172 170 164 158 154 152 151 150 148 146 146 144 141 139 138 137 136 134 133
312 240 220 321 287 135 115 101 10 354 30 91 106 106 110 296 352 357 314 123 225 253 254 219 177 191 238 252 257 263 270 265 236 207 219 220 203 190 180 176 172 165 164 164 164 166 164 166 170 173 176 177 177 178 177 175 173 172 172 171 169 167 171 174 176 178 176 175 174 168 161 158 156 155 155 153 151 151 149 146 145 144 143 141 139 138
273 295 238 160 287 197 157 159 183 257 173 145 140 137 154 176 248 262 246 252 255 260 281 220 152 231 272 265 247 247 258 269 265 244 225 204 191 186 177 170 167 168 170 169 168 168 169 172 175 178 179 179 180 180 179 177 175 173 173 174 173 172 174 177 178 179 178 177 177 172 165 162 160 159 158 157 155 155 153 152 150 149 148 146 144 142
210 285 205 180 214 191 187 192 168 144 159 179 152 137 155 157 178 220 204 219 254 271 296 304 161 203 220 243 241 240 262 289 319 300 226 171 166 161 154 156 163 172 175 172 172 172 173 176 178 181 182 183 183 182 180 178 176 175 175 177 177 174 175 178 179 180 179 178 177 173 169 166 165 163 162 160 159 158 157 155 154 153 151 149 147 145
196 261 223 186 159 169 189 198 122 113 143 224 124 115 175 183 180 221 211 193 202 293 278 226 216 219 213 256 263 250 284 332 352 349 136 138 142 141 153 169 172 177 177 175 175 175 177 179 181 183 185 186 185 183 182 180 178 178 177 178 179 177 177 180 180 181 180 178 176 173 171 170 168 167 165 163 163 162 160 159 157 156 154 152 150 148
180 277 264 133 70 172 189 182 144 157 178 170 137 168 202 183 165 203 273 313 62 282 254 198 244 282 300 276 254 218 235 308 314 274 185 176 167 164 180 185 182 183 179 178 178 178 181 183 186 187 188 188 187 186 184 181 180 180 178 178 178 177 177 180 180 180 179 176 175 175 174 173 172 170 169 167 166 165 163 162 160 158 156 155 154 152
162 250 295 103 129 242 203 116 96 81 135 132 183 203 156 64 104 125 262 344 26 263 265 207 232 258 253 266 271 162 210 257 258 242 224 213 190 193 200 192 191 188 177 178 178 179 185 186 189 191 192 192 190 188 185 182 181 181 181 180 178 177 177 179 180 179 178 176 176 176 177 177 176 173 172 170 169 168 166 165 164 161 160 159 158 156
151 194 296 62 174 271 12 107 95 17 94 135 189 194 127 116 204 125 171 234 192 250 282 240 226 230 210 226 272 163 209 232 237 227 223 222 208 206 206 195 194 186 177 180 181 184 187 189 192 192 192 192 190 188 185 182 182 182 183 183 180 179 178 178 179 178 177 178 178 179 180 180 178 176 175 174 173 171 170 168 167 165 164 162 161 160
144 191 263 330 219 264 19 117 157 198 266 61 124 171 126 138 172 167 180 171 158 227 275 275 239 219 210 203 191 202 212 216 221 215 215 221 213 207 203 194 192 189 188 188 187 190 189 189 193 192 191 190 188 187 184 182 183 183 183 183 181 180 178 177 179 178 178 180 180 181 181 181 180 179 179 178 177 175 174 172 170 168 167 165 163 162
118 202 221 294 321 172 178 196 187 186 181 156 154 177 185 117 117 183 224 150 143 187 232 275 278 242 206 197 193 203 212 211 211 210 216 223 214 207 203 194 193 192 194 197 191 190 187 186 189 189 189 188 185 184 183 182 183 183 183 183 182 180 179 179 180 181 181 182 182 183 183 183 182 182 182 182 181 179 177 175 173 171 170 168 166 166
174 193 168 165 229 200 219 240 216 197 185 175 180 184 182 167 133 178 257 211 151 203 196 230 277 263 221 198 198 199 207 212 211 209 217 222 211 207 204 194 195 194 195 199 192 185 182 180 182 184 184 183 181 181 182 182 183 183 184 184 184 183 183 182 183 184 184 184 185 185 185 185 185 185 185 184 183 182 179 177 176 174 172 171 170 169
146 121 132 173 206 213 241 276 277 196 157 146 177 179 174 181 167 177 232 224 167 244 213 143 283 273 228 169 205 209 214 224 223 213 216 223 210 202 202 195 196 199 198 196 187 179 178 177 178 180 179 180 181 181 181 182 183 184 184 185 185 185 185 186 186 187 187 187 187 188 187 187 187 187 186 185 184 183 181 179 178 177 176 175 173 173
101 126 153 224 282 302 314 330 360 34 71 97 195 183 181 203 193 183 206 177 175 241 188 129 266 262 253 265 260 259 251 254 255 226 216 226 216 194 197 197 195 196 191 184 179 171 169 172 175 178 180 181 181 181 181 182 182 183 184 186 187 187 186 187 188 188 189 189 189 189 189 189 188 187 187 186 186 184 182 181 180 180 180 179 177 176
181 171 141 131 284 312 327 332 351 359 121 196 219 200 201 207 184 170 131 125 242 235 164 175 256 250 312 330 320 342 324 298 287 256 223 219 215 198 197 198 193 187 179 175 175 169 169 174 178 181 184 184 183 182 181 181 182 183 185 187 187 187 187 188 189 189 190 190 189 189 190 190 188 188 188 188 187 186 184 184 183 183 184 184 181 179
174 168 156 172 217 235 235 220 190 181 180 211 220 192 204 207 190 192 207 203 239 227 149 203 249 254 334 330 297 315 325 286 279 277 238 215 208 202 196 194 190 184 183 183 179 178 179 181 183 185 187 187 185 183 181 182 183 183 185 187 188 188 187 188 190 190 191 191 190 190 191 190 189 189 189 190 189 188 187 187 187 186 188 188 185 183
132 172 184 192 212 228 240 233 170 151 156 198 211 194 198 208 196 194 222 223 221 169 192 227 239 262 271 243 237 267 248 241 264 263 246 232 213 205 198 192 190 188 191 188 181 182 183 184 187 187 186 188 187 185 183 183 183 183 184 186 188 189 188 189 191 191 192 193 192 192 192 191 191 191 192 192 191 190 190 190 191 191 191 191 190 187
102 192 203 205 218 229 241 236 174 163 181 196 203 199 199 203 193 196 218 221 176 127 247 241 198 243 258 231 206 247 234 225 248 235 233 234 212 206 194 180 186 190 193 192 188 188 187 187 188 185 186 188 188 187 186 184 185 185 186 186 187 189 190 190 191 192 193 194 194 195 194 194 194 194 195 195 193 193 194 194 194 195 195 195 194 192
135 208 208 207 224 235 242 236 182 176 198 198 197 202 199 195 196 205 217 218 176 178 249 250 189 227 254 231 195 227 215 211 229 221 215 210 192 194 182 178 191 191 191 195 194 191 188 188 188 186 188 188 187 187 186 185 187 187 187 187 188 190 191 192 192 193 194 195 196 197 197 195 196 196 196 196 196 196 197 197 197 198 198 198 197 195
168 214 197 194 222 238 243 236 186 178 204 205 201 205 202 201 205 210 215 217 207 218 244 252 241 248 258 207 192 224 214 212 224 192 187 194 187 184 182 190 200 196 195 197 195 194 192 191 190 186 186 187 189 189 186 186 188 187 188 189 189 191 192 193 193 194 195 197 198 199 198 197 197 198 198 198 199 199 199 199 200 200 201 201 199 197
212 218 142 154 214 244 244 235 185 182 209 224 223 218 216 214 212 211 214 216 218 230 242 251 259 264 259 170 193 227 190 189 207 184 201 207 191 185 189 199 203 199 200 200 196 196 195 191 188 182 186 191 193 192 189 188 188 187 189 191 191 192 193 193 195 196 197 199 199 200 199 198 199 199 200 201 202 202 202 201 202 204 204 204 202 200
199 217 75 123 207 248 243 210 171 185 209 245 249 236 227 221 209 203 212 215 214 226 241 248 254 259 252 162 193 213 161 190 216 207 212 214 194 189 195 203 205 202 201 200 196 195 191 188 186 186 191 195 195 194 192 188 185 188 191 193 193 193 193 194 196 197 199 200 200 200 200 199 200 201 202 203 204 204 204 204 205 206 207 206 204 202
171 181 170 155 209 251 246 165 147 159 176 239 245 240 234 225 210 208 219 224 217 217 231 235 237 250 251 163 199 219 191 207 220 209 210 212 200 200 204 206 206 201 198 197 195 193 190 190 192 192 193 194 195 196 193 187 187 192 194 193 192 192 193 196 198 199 200 200 200 201 201 201 202 203 204 205 206 206 206 206 207 208 209 209 207 206
174 187 202 170 204 251 243 124 123 179 221 234 238 233 230 227 221 220 224 227 221 214 226 237 245 255 251 186 207 222 209 212 219 213 212 205 193 201 211 214 210 203 201 201 197 195 192 191 192 193 194 195 196 195 192 191 193 195 194 192 192 194 196 198 199 200 201 202 202 203 203 204 205 206 207 207 207 207 208 209 209 210 211 211 209 209
181 195 204 158 191 248 177 109 164 217 226 246 295 192 222 225 219 222 232 237 231 223 228 239 249 254 248 226 218 221 219 221 223 224 223 208 191 194 204 210 206 201 203 202 197 195 190 185 185 188 192 194 193 190 189 193 195 194 194 194 195 197 198 198 200 201 203 203 204 205 206 207 208 209 209 209 208 208 209 210 211 211 212 213 213 213
182 192 193 165 184 220 129 190 223 241 279 286 287 219 182 142 160 203 237 244 237 229 227 233 242 247 248 244 234 225 227 233 241 248 235 192 188 194 199 204 202 198 200 197 195 194 188 185 185 185 187 187 186 187 190 194 195 194 194 196 196 197 198 199 200 203 204 204 205 207 209 209 210 210 210 209 208 209 210 211 212 213 215 216 216 217
179 183 189 196 198 198 217 231 245 309 303 277 260 203 165 154 157 174 222 248 240 226 220 229 241 246 246 244 239 226 197 208 264 271 239 183 193 195 195 200 193 191 195 194 198 198 190 186 183 180 179 179 183 189 194 195 195 192 192 192 194 196 197 199 203 205 205 206 208 210 211 211 211 211 211 210 209 210 212 212 214 216 218 218 217 218
190 188 189 199 204 197 220 240 250 264 263 262 253 192 178 178 165 159 202 255 251 216 203 214 233 241 241 237 227 167 119 181 246 251 222 192 186 158 135 146 156 163 170 172 180 183 179 177 174 172 175 177 183 192 195 193 192 189 188 190 193 195 196 200 205 206 206 209 212 213 213 213 213 213 212 212 213 214 214 215 217 220 221 221 221 222
209 208 193 198 206 191 210 231 230 234 248 251 215 200 192 149 132 126 182 259 266 248 208 209 223 234 235 223 188 140 147 214 241 245 202 170 156 135 131 125 130 150 162 166 167 165 163 163 160 162 170 175 181 189 192 191 189 187 187 190 192 194 198 204 208 209 211 215 216 216 216 215 215 215 215 216 217 218 218 220 221 223 224 225 226 227
209 215 200 208 215 206 214 230 231 239 257 230 191 220 265 140 121 118 200 259 276 312 284 220 227 241 230 181 161 160 185 218 242 243 175 145 130 118 131 136 141 150 152 152 153 151 149 150 150 154 166 176 182 186 188 188 186 185 188 191 191 196 204 210 213 215 218 220 219 218 218 218 218 218 219 220 222 222 222 224 225 226 226 227 228 229
200 205 199 213 221 218 221 233 244 248 247 209 196 210 200 133 125 169 222 241 269 282 276 219 214 221 156 149 166 184 207 245 265 204 141 130 117 101 108 120 125 130 130 132 139 141 140 144 151 158 169 177 180 181 184 184 183 185 189 190 193 203 213 218 220 221 222 222 221 221 221 221 221 223 224 225 225 225 226 227 228 229 230 230 229 229
183 187 195 213 221 227 226 230 248 260 235 158 157 196 181 150 173 212 219 197 225 266 299 200 177 165 143 148 159 162 151 20 37 89 108 116 118 115 118 121 117 117 122 127 133 137 137 140 148 156 164 172 175 178 181 182 182 184 187 191 201 214 221 222 223 223 222 223 223 224 224 224 225 226 227 227 227 226 228 229 230 231 232 231 230 230
170 164 185 206 202 205 220 221 233 247 216 130 124 142 178 183 191 189 168 201 228 247 321 30 151 146 132 123 114 117 107 71 68 87 95 101 111 118 128 129 120 117 119 124 132 142 144 144 149 155 160 166 172 176 179 181 181 182 187 198 211 220 222 222 223 223 223 224 225 226 227 227 228 228 228 228 228 228 230 231 230 231 231 231 231 231
178 170 191 204 185 168 196 216 223 220 211 130 141 171 192 184 171 158 146 167 227 224 226 77 93 125 133 123 118 118 100 83 90 100 98 102 114 119 118 111 109 116 123 131 142 151 150 146 147 152 159 166 172 176 180 183 182 183 192 206 216 219 220 222 223 223 224 225 227 228 229 229 229 230 230 230 230 230 230 231 231 230 231 231 231 231
187 166 163 170 174 172 187 210 230 237 280 281 221 226 258 255 140 156 161 163 205 208 188 132 128 138 129 123 121 111 94 101 106 96 100 116 126 123 119 119 125 132 136 140 146 153 154 151 151 153 158 167 175 178 182 187 186 188 199 211 216 219 223 223 221 221 223 225 226 228 229 230 230 231 231 231 231 230 230 229 229 229 229 230 229 230
167 166 96 98 145 211 122 123 155 292 294 288 275 262 260 277 291 178 176 183 200 184 145 130 157 161 144 138 133 118 126 138 121 101 115 131 129 123 121 123 131 137 141 143 146 151 152 149 150 153 156 166 177 181 183 188 191 196 206 215 218 222 224 221 218 220 221 223 225 227 227 228 228 229 230 230 231 231 232 231 230 230 229 228 228 229
288 221 78 92 170 186 149 117 131 289 285 289 312 303 266 251 261 221 185 18 48 116 96 87 127 142 138 135 134 134 145 146 134 133 143 140 140 145 139 132 139 145 147 149 149 150 150 149 150 154 159 167 177 181 183 188 195 202 211 219 222 224 222 219 219 221 221 223 226 226 226 227 227 227 227 228 229 230 231 232 232 231 229 229 228 229
212 148 120 127 163 156 208 269 280 299 277 265 278 292 269 259 269 275 69 47 53 76 65 52 92 126 126 125 133 138 149 161 154 150 156 157 152 149 142 142 146 146 147 151 153 154 156 157 158 162 168 173 178 183 187 193 200 206 211 218 225 225 224 226 226 227 229 230 231 231 231 230 230 230 229 228 227 227 228 229 230 230 231 232 231 231
128 134 157 136 110 86 281 256 238 312 293 270 248 246 247 243 255 330 58 79 87 88 79 60 54 98 130 147 148 138 148 181 182 153 148 154 151 145 146 149 150 149 152 157 161 164 165 167 169 172 174 177 182 188 194 199 206 212 218 224 229 230 229 232 232 234 238 240 240 242 242 239 238 237 235 234 232 230 231 232 233 234 235 236 237 237
121 152 173 121 124 207 225 196 177 164 222 239 231 231 232 219 205 232 214 127 130 136 121 95 61 56 95 134 154 151 156 177 179 155 149 155 159 155 150 147 147 151 155 160 165 170 172 173 176 175 172 171 178 185 193 200 206 216 225 229 234 237 237 238 238 238 241 242 244 245 245 244 243 243 242 243 242 241 241 241 242 243 245 245 246 247
161 179 178 153 175 222 198 179 178 170 191 223 221 220 217 195 178 209 218 176 162 175 155 128 116 107 94 82 118 152 159 165 166 160 153 153 163 161 157 157 158 157 159 163 168 171 171 172 176 174 168 164 167 172 180 188 194 203 212 215 219 225 229 233 236 237 238 240 242 243 244 245 246 246 247 249 248 248 248 247 247 248 249 251 253 253